Location: Unspecified
(52.4292°N, 19.3359°E)
Time: 19:55:39
(UTC+02:00)

Tiros 1 - Pass Details

Date: 27 May 2024
Orbit: 624 x 657 km, 48.4° (Epoch: 15 June)

Event Time Altitude Azimuth Distance (km) Brightness Sun altitude
Rises 12:27:19 0° 248° (WSW) 2,968 10.7 58.9°
Reaches altitude 10° 12:29:42 10° 243° (WSW) 2,061 10.0 58.9°
Maximum altitude 12:34:17 48° 169° (S) 856 10.1 59.0°
Drops below altitude 10° 12:38:53 10° 96° (E) 2,070 9.9 59.0°
Sets 12:41:17 0° 91° (E) 2,982 10.6 59.0°
